| time (UTC) | temp F | wind direction | speed MPH | gust MPH | rain 1hr in | rain 24hr in | rain mn in | humidity % | barometer mb |
| 20260905083403 | 83 | 27 | 1.0 | 3.0 | 0.00 | 0.00 | 0.00 | 58 | 1023.0 |
| 20260905082355 | 82 | 31 | 0.0 | 3.0 | 0.00 | 0.00 | 0.00 | 60 | 1022.9 |
| 20260905081350 | 81 | 34 | 2.0 | 3.0 | 0.00 | 0.00 | 0.00 | 62 | 1023.0 |
| 20260905080350 | 80 | 33 | 0.0 | 3.0 | 0.00 | 0.00 | 0.00 | 64 | 1023.0 |
| 20260905075348 | 80 | 35 | 0.0 | 2.0 | 0.00 | 0.00 | 0.00 | 67 | 1022.9 |
| 20260905074347 | 79 | 35 | 0.0 | 3.0 | 0.00 | 0.00 | 0.00 | 69 | 1022.8 |
| 20260905073347 | 78 | 35 | 1.0 | 2.0 | 0.00 | 0.00 | 0.00 | 72 | 1022.8 |
| 20260905072401 | 77 | 35 | 0.0 | 2.0 | 0.00 | 0.00 | 0.00 | 74 | 1022.8 |
| 20260905071356 | 76 | 35 | 1.0 | 3.0 | 0.00 | 0.00 | 0.00 | 76 | 1022.8 |
| 20260905070359 | 75 | 35 | 0.0 | 3.0 | 0.00 | 0.00 | 0.00 | 79 | 1022.8 |
| 20260905065347 | 74 | 35 | 0.0 | 3.0 | 0.00 | 0.00 | 0.00 | 79 | 1022.6 |
| 20260905064350 | 74 | 35 | 1.0 | 3.0 | 0.00 | 0.00 | 0.00 | 81 | 1022.5 |
| 20260905063352 | 73 | 33 | 1.0 | 3.0 | 0.00 | 0.00 | 0.00 | 82 | 1022.5 |
| 20260905062347 | 73 | 33 | 1.0 | 2.0 | 0.00 | 0.00 | 0.00 | 82 | 1022.3 |
| 20260905061342 | 73 | 33 | 0.0 | 2.0 | 0.00 | 0.00 | 0.00 | 83 | 1022.2 |
| 20260905060342 | 73 | 32 | 0.0 | 4.0 | 0.00 | 0.00 | 0.00 | 84 | 1022.3 |
| 20260905055353 | 73 | 33 | 0.0 | 2.0 | 0.00 | 0.00 | 0.00 | 85 | 1022.2 |
| 20260905054350 | 73 | 33 | 0.0 | 0.0 | 0.00 | 0.00 | 0.00 | 85 | 1021.9 |
| 20260905053351 | 73 | 46 | 0.0 | 0.0 | 0.00 | 0.00 | 0.00 | 85 | 1021.8 |
| 20260905052342 | 73 | 46 | 0.0 | 0.0 | 0.00 | 0.00 | 0.00 | 85 | 1021.9 |
| 20260905051344 | 73 | 46 | 0.0 | 0.0 | 0.00 | 0.00 | 0.00 | 84 | 1021.6 |
| 20260905050357 | 73 | 46 | 0.0 | 0.0 | 0.00 | 0.00 | 0.00 | 84 | 1021.6 |
| 20260905045355 | 73 | 46 | 0.0 | 0.0 | 0.00 | 0.00 | 0.00 | 84 | 1021.6 |
| 20260905044357 | 73 | 46 | 0.0 | 0.0 | 0.00 | 0.00 | 0.00 | 84 | 1021.6 |
| 20260905043341 | 74 | 46 | 0.0 | 0.0 | 0.00 | 0.00 | 0.00 | 84 | 1021.6 |
| 20260905042358 | 74 | 46 | 0.0 | 0.0 | 0.00 | 0.00 | 0.00 | 84 | 1021.4 |
| 20260905041355 | 74 | 46 | 0.0 | 0.0 | 0.00 | 0.00 | 0.00 | 83 | 1021.5 |
| 20260905040356 | 74 | 46 | 0.0 | 0.0 | 0.00 | 0.00 | 0.00 | 83 | 1021.4 |
| 20260905035347 | 74 | 46 | 0.0 | 0.0 | 0.00 | 0.00 | 0.00 | 83 | 1021.4 |
| 20260905034347 | 74 | 46 | 0.0 | 3.0 | 0.00 | 0.00 | 0.00 | 83 | 1021.5 |
| 20260905033349 | 75 | 46 | 2.0 | 3.0 | 0.00 | 0.00 | 0.00 | 83 | 1021.3 |
| 20260905032347 | 75 | 48 | 0.0 | 2.0 | 0.00 | 0.00 | 0.00 | 83 | 1021.3 |
| 20260905031348 | 75 | 48 | 0.0 | 2.0 | 0.00 | 0.00 | 0.00 | 83 | 1021.2 |
| 20260905030350 | 75 | 47 | 0.0 | 2.0 | 0.00 | 0.00 | 0.00 | 82 | 1021.3 |
| 20260905025344 | 75 | 47 | 2.0 | 4.0 | 0.00 | 0.00 | 0.00 | 82 | 1021.4 |
| 20260905024343 | 75 | 119 | 2.0 | 4.0 | 0.00 | 0.00 | 0.00 | 81 | 1021.3 |
| 20260905023345 | 75 | 125 | 0.0 | 3.0 | 0.00 | 0.00 | 0.00 | 82 | 1021.2 |
| 20260905022340 | 76 | 126 | 0.0 | 1.0 | 0.00 | 0.00 | 0.00 | 82 | 1021.3 |
| 20260905021357 | 76 | 126 | 0.0 | 2.0 | 0.00 | 0.00 | 0.00 | 81 | 1021.3 |
| 20260905020359 | 76 | 126 | 1.0 | 2.0 | 0.00 | 0.00 | 0.00 | 81 | 1021.4 |
| 20260905015350 | 76 | 126 | 0.0 | 0.0 | 0.00 | 0.00 | 0.00 | 81 | 1021.3 |
| 20260905014346 | 77 | 127 | 0.0 | 0.0 | 0.00 | 0.00 | 0.00 | 81 | 1021.3 |
| 20260905013346 | 77 | 126 | 0.0 | 0.0 | 0.00 | 0.00 | 0.00 | 81 | 1021.3 |
| 20260905012345 | 77 | 127 | 0.0 | 0.0 | 0.00 | 0.00 | 0.00 | 80 | 1021.4 |
| 20260905011344 | 77 | 127 | 0.0 | 0.0 | 0.00 | 0.00 | 0.00 | 80 | 1021.4 |
| 20260905010350 | 77 | 126 | 0.0 | 0.0 | 0.00 | 0.00 | 0.00 | 80 | 1021.4 |
| 20260905005343 | 77 | 126 | 0.0 | 0.0 | 0.00 | 0.00 | 0.00 | 80 | 1021.5 |
| 20260905004344 | 78 | 126 | 0.0 | 0.0 | 0.00 | 0.00 | 0.00 | 79 | 1021.6 |
| 20260905003344 | 78 | 126 | 0.0 | 0.0 | 0.00 | 0.00 | 0.00 | 79 | 1021.5 |
| 20260905002358 | 78 | 126 | 0.0 | 0.0 | 0.00 | 0.00 | 0.00 | 78 | 1021.6 |
| 20260905001356 | 78 | 126 | 0.0 | 0.0 | 0.00 | 0.00 | 0.00 | 78 | 1021.7 |
| 20260905000352 | 78 | 126 | 0.0 | 0.0 | 0.00 | 0.00 | 0.00 | 78 | 1021.6 |
| 20260904235346 | 78 | 127 | 0.0 | 0.0 | 0.00 | 0.00 | 0.00 | 78 | 1021.6 |
| 20260904234349 | 78 | 126 | 0.0 | 0.0 | 0.00 | 0.00 | 0.00 | 78 | 1021.7 |
| 20260904233346 | 78 | 126 | 0.0 | 0.0 | 0.00 | 0.00 | 0.00 | 78 | 1021.7 |
| 20260904232400 | 78 | 126 | 0.0 | 1.0 | 0.00 | 0.00 | 0.00 | 77 | 1021.7 |
| 20260904231358 | 79 | 126 | 0.0 | 2.0 | 0.00 | 0.00 | 0.00 | 77 | 1021.8 |
| 20260904230358 | 79 | 126 | 1.0 | 2.0 | 0.00 | 0.00 | 0.00 | 76 | 1021.9 |
| 20260904225349 | 79 | 126 | 1.0 | 2.0 | 0.00 | 0.00 | 0.00 | 76 | 1021.9 |
| 20260904224344 | 79 | 126 | 0.0 | 1.0 | 0.00 | 0.00 | 0.00 | 75 | 1021.9 |
| 20260904223345 | 79 | 126 | 0.0 | 2.0 | 0.00 | 0.00 | 0.00 | 75 | 1021.9 |
| 20260904222358 | 79 | 126 | 1.0 | 2.0 | 0.00 | 0.00 | 0.00 | 75 | 1021.9 |
| 20260904221351 | 79 | 126 | 0.0 | 3.0 | 0.00 | 0.00 | 0.00 | 74 | 1021.8 |
| 20260904220349 | 80 | 127 | 0.0 | 3.0 | 0.00 | 0.00 | 0.00 | 74 | 1021.8 |
| 20260904215403 | 80 | 126 | 2.0 | 4.0 | 0.00 | 0.00 | 0.00 | 73 | 1021.7 |
| 20260904214342 | 80 | 127 | 2.0 | 4.0 | 0.00 | 0.00 | 0.00 | 72 | 1021.7 |
| 20260904213342 | 80 | 126 | 0.0 | 0.0 | 0.00 | 0.00 | 0.00 | 72 | 1021.7 |
| 20260904212344 | 80 | 126 | 0.0 | 1.0 | 0.00 | 0.00 | 0.00 | 73 | 1021.9 |
| 20260904211345 | 80 | 126 | 0.0 | 3.0 | 0.00 | 0.00 | 0.00 | 73 | 1021.8 |
| 20260904210349 | 81 | 126 | 0.0 | 0.0 | 0.00 | 0.00 | 0.00 | 73 | 1021.8 |
| 20260904205343 | 81 | 126 | 0.0 | 0.0 | 0.00 | 0.00 | 0.00 | 74 | 1021.9 |
| 20260904204349 | 81 | 126 | 0.0 | 0.0 | 0.00 | 0.00 | 0.00 | 74 | 1021.8 |
| 20260904203400 | 81 | 126 | 0.0 | 1.0 | 0.00 | 0.00 | 0.00 | 73 | 1021.9 |
| 20260904202350 | 81 | 126 | 0.0 | 1.0 | 0.00 | 0.00 | 0.00 | 74 | 1021.9 |
| 20260904201348 | 81 | 126 | 0.0 | 1.0 | 0.00 | 0.00 | 0.00 | 74 | 1021.8 |
| 20260904200344 | 81 | 126 | 0.0 | 1.0 | 0.00 | 0.00 | 0.00 | 75 | 1021.8 |
| 20260904195348 | 82 | 126 | 1.0 | 2.0 | 0.00 | 0.00 | 0.00 | 76 | 1021.7 |
| 20260904194402 | 81 | 126 | 0.0 | 3.0 | 0.00 | 0.00 | 0.00 | 76 | 1021.6 |
| 20260904193354 | 82 | 126 | 2.0 | 4.0 | 0.00 | 0.00 | 0.00 | 77 | 1021.7 |
| 20260904192405 | 82 | 126 | 2.0 | 4.0 | 0.00 | 0.00 | 0.00 | 77 | 1021.6 |
| 20260904191354 | 82 | 126 | 1.0 | 2.0 | 0.00 | 0.00 | 0.00 | 77 | 1021.6 |
| 20260904190344 | 82 | 126 | 1.0 | 3.0 | 0.00 | 0.00 | 0.00 | 78 | 1021.5 |
| 20260904185350 | 82 | 126 | 0.0 | 2.0 | 0.00 | 0.00 | 0.00 | 78 | 1021.3 |
| 20260904184400 | 82 | 126 | 2.0 | 3.0 | 0.00 | 0.00 | 0.00 | 78 | 1021.1 |
| 20260904183352 | 82 | 127 | 1.0 | 6.0 | 0.00 | 0.00 | 0.00 | 78 | 1020.9 |
| 20260904182342 | 82 | 127 | 3.0 | 6.0 | 0.00 | 0.00 | 0.00 | 78 | 1020.7 |
| 20260904181342 | 82 | 121 | 5.0 | 7.0 | 0.00 | 0.00 | 0.00 | 77 | 1020.6 |
| 20260904180343 | 83 | 149 | 4.0 | 9.0 | 0.00 | 0.00 | 0.00 | 77 | 1020.4 |
| 20260904175355 | 83 | 110 | 5.0 | 9.0 | 0.00 | 0.00 | 0.00 | 75 | 1020.5 |
| 20260904174353 | 83 | 134 | 4.0 | 8.0 | 0.00 | 0.00 | 0.00 | 74 | 1020.5 |
| 20260904173343 | 83 | 130 | 2.0 | 9.0 | 0.00 | 0.00 | 0.00 | 74 | 1020.4 |
| 20260904172359 | 83 | 137 | 5.0 | 10.0 | 0.00 | 0.00 | 0.00 | 75 | 1020.2 |
| 20260904171343 | 83 | 155 | 6.0 | 15.0 | 0.00 | 0.00 | 0.00 | 75 | 1020.1 |
| 20260904170347 | 83 | 117 | 8.0 | 15.0 | 0.00 | 0.00 | 0.00 | 74 | 1019.9 |
| 20260904165403 | 83 | 119 | 8.0 | 16.0 | 0.00 | 0.00 | 0.00 | 72 | 1019.9 |
| 20260904164350 | 84 | 102 | 6.0 | 16.0 | 0.00 | 0.00 | 0.00 | 70 | 1020.1 |
| 20260904163348 | 84 | 119 | 7.0 | 13.0 | 0.00 | 0.00 | 0.00 | 69 | 1020.0 |
| 20260904162343 | 84 | 113 | 7.0 | 15.0 | 0.00 | 0.00 | 0.00 | 68 | 1020.1 |
| 20260904161355 | 85 | 97 | 6.0 | 13.0 | 0.00 | 0.00 | 0.00 | 68 | 1020.1 |
| 20260904160349 | 85 | 144 | 8.0 | 14.0 | 0.00 | 0.00 | 0.00 | 68 | 1020.1 |
| 20260904155406 | 85 | 148 | 5.0 | 14.0 | 0.00 | 0.00 | 0.00 | 68 | 1020.1 |
| 20260904154359 | 85 | 111 | 6.0 | 15.0 | 0.00 | 0.00 | 0.00 | 67 | 1020.1 |
| 20260904153354 | 86 | 102 | 7.0 | 14.0 | 0.00 | 0.00 | 0.00 | 66 | 1020.1 |
| 20260904152402 | 86 | 144 | 6.0 | 14.0 | 0.00 | 0.00 | 0.00 | 66 | 1020.0 |
| 20260904151356 | 86 | 122 | 8.0 | 16.0 | 0.00 | 0.00 | 0.00 | 65 | 1020.1 |
| 20260904150348 | 86 | 129 | 8.0 | 13.0 | 0.00 | 0.00 | 0.00 | 65 | 1020.1 |
| 20260904145403 | 87 | 125 | 6.0 | 12.0 | 0.00 | 0.00 | 0.00 | 64 | 1020.1 |
| 20260904144401 | 87 | 113 | 6.0 | 14.0 | 0.00 | 0.00 | 0.00 | 64 | 1020.0 |
| 20260904143400 | 87 | 120 | 6.0 | 15.0 | 0.00 | 0.00 | 0.00 | 63 | 1020.1 |
| 20260904142348 | 87 | 129 | 6.0 | 13.0 | 0.00 | 0.00 | 0.00 | 61 | 1020.2 |
| 20260904141347 | 87 | 185 | 7.0 | 12.0 | 0.00 | 0.00 | 0.00 | 60 | 1020.2 |
| 20260904140403 | 88 | 128 | 10.0 | 14.0 | 0.00 | 0.00 | 0.00 | 59 | 1020.4 |
| 20260904135351 | 88 | 166 | 3.0 | 13.0 | 0.00 | 0.00 | 0.00 | 58 | 1020.2 |
| 20260904134347 | 88 | 101 | 9.0 | 15.0 | 0.00 | 0.00 | 0.00 | 57 | 1020.5 |
| 20260904133401 | 89 | 160 | 5.0 | 14.0 | 0.00 | 0.00 | 0.00 | 58 | 1020.5 |
| 20260904132343 | 88 | 138 | 6.0 | 12.0 | 0.00 | 0.00 | 0.00 | 57 | 1020.5 |
| 20260904131359 | 88 | 120 | 8.0 | 18.0 | 0.00 | 0.00 | 0.00 | 58 | 1020.4 |
| 20260904130346 | 89 | 133 | 9.0 | 13.0 | 0.00 | 0.00 | 0.00 | 56 | 1020.5 |
| 20260904125351 | 89 | 136 | 10.0 | 15.0 | 0.00 | 0.00 | 0.00 | 56 | 1020.5 |
| 20260904124348 | 89 | 87 | 7.0 | 15.0 | 0.00 | 0.00 | 0.00 | 56 | 1020.6 |
| 20260904123357 | 89 | 134 | 4.0 | 15.0 | 0.00 | 0.00 | 0.00 | 56 | 1020.6 |
| 20260904122402 | 89 | 118 | 8.0 | 14.0 | 0.00 | 0.00 | 0.00 | 55 | 1020.7 |
| 20260904121356 | 90 | 130 | 7.0 | 15.0 | 0.00 | 0.00 | 0.00 | 55 | 1020.7 |
| 20260904120349 | 90 | 146 | 7.0 | 16.0 | 0.00 | 0.00 | 0.00 | 55 | 1020.8 |
| 20260904115357 | 90 | 133 | 7.0 | 13.0 | 0.00 | 0.00 | 0.00 | 54 | 1021.1 |
| 20260904114352 | 91 | 134 | 7.0 | 14.0 | 0.00 | 0.00 | 0.00 | 53 | 1020.9 |
| 20260904113344 | 91 | 128 | 7.0 | 13.0 | 0.00 | 0.00 | 0.00 | 50 | 1021.1 |
| 20260904112359 | 92 | 134 | 4.0 | 10.0 | 0.00 | 0.00 | 0.00 | 49 | 1021.1 |
| 20260904111352 | 92 | 123 | 5.0 | 11.0 | 0.00 | 0.00 | 0.00 | 47 | 1021.0 |
| 20260904110348 | 91 | 149 | 5.0 | 9.0 | 0.00 | 0.00 | 0.00 | 47 | 1021.3 |
| 20260904105357 | 91 | 137 | 5.0 | 10.0 | 0.00 | 0.00 | 0.00 | 47 | 1021.3 |
| 20260904104349 | 92 | 147 | 2.0 | 6.0 | 0.00 | 0.00 | 0.00 | 47 | 1021.3 |
| 20260904103401 | 91 | 197 | 2.0 | 7.0 | 0.00 | 0.00 | 0.00 | 47 | 1021.4 |
| 20260904102358 | 90 | 251 | 4.0 | 8.0 | 0.00 | 0.00 | 0.00 | 47 | 1021.5 |
| 20260904101358 | 89 | 275 | 3.0 | 8.0 | 0.00 | 0.00 | 0.00 | 47 | 1021.7 |
| 20260904100354 | 89 | 233 | 3.0 | 6.0 | 0.00 | 0.00 | 0.00 | 48 | 1021.6 |
| 20260904095402 | 88 | 284 | 3.0 | 4.0 | 0.00 | 0.00 | 0.00 | 48 | 1021.7 |
| 20260904094357 | 88 | 285 | 3.0 | 4.0 | 0.00 | 0.00 | 0.00 | 48 | 1021.8 |
| 20260904093348 | 87 | 285 | 1.0 | 3.0 | 0.00 | 0.00 | 0.00 | 50 | 1021.8 |
| 20260904092339 | 86 | 285 | 2.0 | 4.0 | 0.00 | 0.00 | 0.00 | 51 | 1021.9 |
| 20260904091401 | 85 | 283 | 1.0 | 3.0 | 0.00 | 0.00 | 0.00 | 53 | 1021.9 |
| 20260904090402 | 84 | 274 | 1.0 | 3.0 | 0.00 | 0.00 | 0.00 | 55 | 1021.9 |
| 20260904085359 | 83 | 273 | 2.0 | 4.0 | 0.00 | 0.00 | 0.00 | 56 | 1022.0 |
| 20260904084359 | 83 | 273 | 1.0 | 3.0 | 0.00 | 0.00 | 0.00 | 61 | 1021.9 |